Location: Bathurst
(33.4193°S, 149.5775°E)
Time: 20:06:10
(UTC+10:00)

Vanguard 1 - All Passes

Search period start: 15 June 2021 00:00
Search period end: 25 June 2021 00:00
Orbit: 650 x 3832 km, 34.2° (Epoch: 14 June)

Date Brightness Start Highest point End Pass type
(mag) Time Alt. Az. Time Alt. Az. Time Alt. Az.
15 Jun - 09:32:28 10° NNW 09:37:10 33° NE 09:44:17 10° E daylight
15 Jun - 11:50:38 10° WNW 11:57:26 88° N 12:10:29 10° E daylight
15 Jun - 14:10:21 10° W 14:20:15 89° N 14:39:07 10° ENE daylight
15 Jun - 16:31:06 10° WSW 16:44:42 60° NNW 17:06:32 10° NE daylight
15 Jun - 18:55:19 10° W 19:09:54 28° NW 19:27:43 10° N visible
16 Jun - 09:52:43 10° NW 09:57:45 47° NNE 10:05:55 10° E daylight
16 Jun - 12:11:29 10° W 12:18:35 87° S 12:32:16 10° E daylight
16 Jun - 14:31:18 10° W 14:41:34 83° NNW 15:00:55 10° ENE daylight
16 Jun - 16:52:21 10° W 17:06:03 51° NNW 17:27:13 10° NE visible
16 Jun - 19:18:28 10° W 19:31:09 21° NW 19:45:59 10° N visible
17 Jun - 07:58:01 10° NNE 07:59:30 11° NE 08:01:05 10° ENE daylight
17 Jun - 10:13:14 10° WNW 10:18:30 63° NNE 10:27:27 10° ESE daylight
17 Jun - 12:32:22 10° W 12:39:46 85° S 12:54:07 10° E daylight
17 Jun - 14:52:15 10° WSW 15:02:53 74° NNW 15:22:31 10° ENE daylight
17 Jun - 17:13:48 10° W 17:27:23 42° NNW 17:47:27 10° NNE visible
17 Jun - 19:43:31 10° WNW 19:52:30 14° NW 20:02:24 10° NNW visible
18 Jun - 08:16:37 10° N 08:19:58 19° NE 08:24:03 10° E daylight
18 Jun - 10:33:56 10° WNW 10:39:24 78° NNE 10:48:57 10° E daylight
18 Jun - 12:53:17 10° W 13:01:00 87° S 13:15:59 10° E daylight
18 Jun - 15:13:15 10° W 15:24:10 65° NNW 15:43:51 10° NE daylight
18 Jun - 17:35:35 10° W 17:48:44 33° NW 18:07:11 10° NNE visible
19 Jun - 08:36:27 10° NNW 08:40:30 30° NE 08:45:53 10° E daylight
19 Jun - 10:54:44 10° W 11:00:23 89° N 11:10:30 10° E daylight
19 Jun - 13:14:10 10° W 13:22:12 88° N 13:37:48 10° ENE daylight
19 Jun - 15:34:20 10° W 15:45:28 55° NNW 16:04:52 10° NE daylight
19 Jun - 17:57:54 10° W 18:10:06 25° NW 18:26:14 10° N visible
20 Jun - 08:56:44 10° NW 09:01:09 44° NNE 09:07:22 10° E daylight
20 Jun - 11:15:36 10° W 11:21:28 85° S 11:32:07 10° E daylight
20 Jun - 13:35:04 10° W 13:43:24 80° NNW 13:59:30 10° ENE daylight
20 Jun - 15:55:33 10° W 16:06:47 46° NNW 16:25:29 10° NE daylight
20 Jun - 18:21:13 10° WNW 18:31:31 18° NW 18:44:11 10° N visible
21 Jun - 07:01:43 10° NNE 07:02:43 11° NE 07:03:44 10° NE daylight
21 Jun - 09:17:18 10° WNW 09:21:54 62° NNE 09:28:44 10° E daylight
21 Jun - 11:36:28 10° W 11:42:33 84° S 11:53:47 10° E daylight
21 Jun - 13:55:59 10° W 14:04:35 70° NNW 14:21:01 10° ENE daylight
21 Jun - 16:17:00 10° W 16:28:08 37° NNW 16:45:40 10° NNE daylight
21 Jun - 18:47:15 10° WNW 18:53:02 12° NW 18:59:27 10° NNW visible
22 Jun - 07:20:13 10° NNW 07:23:21 18° NE 07:26:41 10° ENE daylight
22 Jun - 09:38:02 10° WNW 09:42:46 79° NNE 09:50:04 10° E daylight
22 Jun - 11:57:21 10° W 12:03:40 88° S 12:15:28 10° E daylight
22 Jun - 14:16:56 10° W 14:25:46 60° NNW 14:42:15 10° NE daylight
22 Jun - 16:38:49 10° W 16:49:30 29° NNW 17:05:16 10° NNE daylight
23 Jun - 07:40:08 10° NNW 07:44:00 29° NNE 07:48:22 10° E daylight
23 Jun - 09:58:52 10° W 10:03:44 89° S 10:11:27 10° E daylight
23 Jun - 12:18:13 10° W 12:24:46 85° N 12:37:08 10° ENE daylight
23 Jun - 14:38:00 10° W 14:47:00 49° NNW 15:03:11 10° NE daylight
23 Jun - 17:01:18 10° WNW 17:10:55 21° NW 17:24:04 10° N visible
24 Jun - 08:00:31 10° NW 08:04:44 43° NNE 08:09:42 10° E daylight
24 Jun - 10:19:44 10° W 10:24:44 83° S 10:32:53 10° E daylight
24 Jun - 12:39:05 10° W 12:45:52 76° NNW 12:58:40 10° ENE daylight
24 Jun - 14:59:14 10° W 15:08:16 40° NNW 15:23:42 10° NE daylight
24 Jun - 17:25:09 10° WNW 17:32:26 15° NW 17:41:23 10° N visible
